Regional Weather Roundup
Issued by NWS Little Rock, AR

Home | Current Version | Previous Version | Text Only | Print | Product List | Glossary On
Versions: 1 2 3 4 5 6 7 8 9 10 11 12 13 14 15 16 17 18 19 20 21 22 23 24 25 26 27 28 29 30 31 32 33 34 35 36 37 38 39 40 41 42 43 44 45 46 47 48 49 50
000
ASUS44 KLZK 020405
RWRLZK

WEATHER ROUNDUP FOR ARKANSAS
NATIONAL WEATHER SERVICE LITTLE ROCK AR
1100 PM CDT WED OCT 01 2014

NOTE: "FAIR" INDICATES FEW OR NO CLOUDS BELOW 12,000 FEET WITH NO
SIGNIFICANT WEATHER AND/OR OBSTRUCTIONS TO VISIBILITY.

ARZ001-003-010-029-020500-
NORTHWEST ARKANSAS

CITY           SKY/WX    TMP DP  RH WIND       PRES   REMARKS
FAYETTEVILLE   PTCLDY    75  68  78 S9        29.84S
FORT SMITH     CLEAR     73  68  84 E6        29.81S
HARRISON       CLEAR     73  68  84 SE6       29.86R
BENTONVILLE    PTCLDY    73  66  78 S6        29.84R
ROGERS         MOCLDY    74  67  78 S10       29.84S
SILOAM SPGS    PTCLDY    75  64  69 S9        29.84R
HIGHFILL       PTCLDY    74  68  81 S10       29.83R
$$

ARZ004-005-016-020500-
NORTH CENTRAL ARKANSAS

CITY           SKY/WX    TMP DP  RH WIND       PRES   REMARKS
BATESVILLE     CLEAR     75  66  73 SE6       29.87S
FLIPPIN        CLEAR     75  64  69 SE5       29.85S
MTN HOME       CLEAR     74  69  85 SE5       29.86R
$$

ARZ040-041-020500-
WEST CENTRAL ARKANSAS

CITY           SKY/WX    TMP DP  RH WIND       PRES   REMARKS
MENA           PTCLDY    81  70  69 CALM      29.87S
MOUNT IDA      CLEAR     79  70  74 VRB3      29.84S
$$

ARZ009-017-025-026-028-020500-
NORTHEAST ARKANSAS

CITY           SKY/WX    TMP DP  RH WIND       PRES   REMARKS
CORNING          N/A     70  66  88 SE8       29.88S
JONESBORO      CLEAR     70  66  87 SE3       29.88S
NEWPORT        CLEAR     72  68  87 SE10      29.88S
WALNUT RIDGE   CLEAR     70  64  83 SE7       29.87S
BLYTHEVILLE    CLEAR     74  67  78 S7        29.90S
$$

ARZ022-023-033-042-044-020500-
CENTRAL ARKANSAS

CITY           SKY/WX    TMP DP  RH WIND       PRES   REMARKS
LITTLE ROCK    CLEAR     75  68  78 S7        29.86S
N LITTLE ROCK  CLEAR     77  71  82 S7        29.86S
JACKSONVILLE   CLEAR     76  69  80 SE5       29.86S
SEARCY         CLEAR     72  70  93 SE3       29.88R
HOT SPRINGS    CLEAR     78  70  76 S6        29.87R
RUSSELLVILLE   CLEAR     73  70  90 CALM      29.84S
CLINTON        FAIR      72  72 100 CALM      29.87S FOG
$$

ARZ036-020500-
EAST ARKANSAS

CITY           SKY/WX    TMP DP  RH WIND       PRES   REMARKS
WEST MEMPHIS   CLEAR     72  66  81 S7        29.89R
$$

ARZ050-053-066-070-073-020500-
SOUTHWEST ARKANSAS

CITY           SKY/WX    TMP DP  RH WIND       PRES   REMARKS
ARKADELPHIA    FAIR      73  73 100 CALM      29.86S
CAMDEN         CLEAR     75  68  78 S6        29.86S
EL DORADO      CLEAR     76  71  85 SE6       29.88R
DE QUEEN       CLEAR     77  70  79 SE5       29.82S
$$

ARZ056-057-069-020500-
SOUTHEAST ARKANSAS

CITY           SKY/WX    TMP DP  RH WIND       PRES   REMARKS
PINE BLUFF     CLEAR     75  67  76 S8        29.87S
STUTTGART      CLEAR    N/A N/A N/A SE7       29.88S
MONTICELLO     CLEAR     76  68  76 S5        29.89R

$$




USA.gov is the U.S. government's official web portal to all federal, state and local government web resources and services.